Location: Baia Mare
(47.6567°N, 23.5850°E)
Time: 20:38:38
(UTC+03:00)

ISS - Pass Details

Date: 14 May 2018
Orbit: 402 x 407 km, 51.6° (Epoch: 27 May)

Event Time Altitude Azimuth Distance (km) Brightness Sun altitude
Exits shadow 04:37:38 - 284° (WNW) 2,037 -0.6 -10.6°
Reaches altitude 10° 04:39:06 10° 290° (WNW) 1,458 -1.3 -10.4°
Maximum altitude 04:42:11 39° 2° (N) 624 -2.5 -10.0°
Drops below altitude 10° 04:45:17 10° 73° (ENE) 1,459 0.2 -9.7°
Sets 04:47:27 0° 81° (E) 2,318 1.1 -9.4°
